Date,TemperatureHighF,TemperatureAvgF,TemperatureLowF,DewpointHighF,DewpointAvgF,DewpointLowF,HumidityHigh,HumidityAvg,HumidityLow,PressureMaxIn,PressureMinIn,WindSpeedMaxMPH,WindSpeedAvgMPH,GustSpeedMaxMPH,PrecipitationSumIn
2013-1-1,33,26,15,17,12,7,69,57,49,0.00,40.00,7,5,11,0.00
2013-1-2,29,20,13,9,7,3,69,55,41,0.00,40.00,10,8,15,0.00
2013-1-3,33,27,22,9,6,5,49,42,34,0.00,40.00,13,11,20,0.00
2013-1-4,41,36,28,24,17,7,60,46,35,0.00,40.00,15,10,27,0.00
2013-1-5,42,31,21,22,17,14,83,58,37,0.00,40.00,11,7,23,0.00
2013-1-6,42,36,32,23,17,13,50,46,43,0.00,40.00,16,11,25,0.00
2013-1-7,43,38,34,26,21,18,54,49,44,0.00,40.00,27,11,41,0.00
2013-1-8,45,40,36,27,20,13,57,46,34,0.00,40.00,25,12,36,0.00
2013-1-9,50,48,45,27,24,21,48,39,32,0.00,40.00,14,9,27,0.00
2013-1-10,45,24,10,29,17,4,91,77,43,0.00,40.00,9,5,16,0.00
2013-1-11,11,7,-1,5,-1,-6,80,70,60,0.00,40.00,8,4,16,0.00
2013-1-12,15,7,0,7,-1,-6,80,69,62,0.00,40.00,9,6,14,0.00
2013-1-13,17,9,-2,4,0,-7,77,66,54,0.00,40.00,9,7,12,0.00
2013-1-14,24,16,8,12,3,-2,67,56,47,0.00,40.00,9,6,20,0.00
2013-1-15,39,31,24,21,17,11,59,55,48,0.00,40.00,11,7,21,0.00
2013-1-16,50,40,33,22,18,13,58,42,31,0.00,40.00,11,7,21,0.00
2013-1-17,49,43,33,21,17,14,58,36,28,0.00,40.00,12,7,22,0.00
2013-1-18,49,46,40,17,15,13,36,28,23,0.00,40.00,25,12,40,0.00
2013-1-19,45,39,33,27,18,11,69,44,28,0.00,40.00,13,7,16,0.00
2013-1-20,36,22,16,17,15,12,87,74,42,0.00,40.00,13,7,24,0.00
2013-1-21,53,33,17,17,13,9,86,53,20,0.00,40.00,11,7,19,0.00
2013-1-22,48,42,35,14,9,5,34,26,20,0.00,40.00,11,7,15,0.00
2013-1-23,49,28,22,28,17,14,77,65,33,0.00,40.00,15,8,23,0.00
2013-1-24,50,45,41,31,22,16,60,40,33,0.00,40.00,18,10,34,0.00
2013-1-25,51,45,41,30,26,22,60,47,42,0.00,40.00,13,9,25,0.00
2013-1-26,54,42,33,34,30,26,96,65,36,0.00,40.00,11,7,22,0.00
2013-1-27,39,34,28,32,19,13,93,57,35,0.00,40.00,13,6,22,0.00
2013-1-28,37,30,24,17,14,10,67,51,34,0.00,40.00,11,6,19,0.00
2013-1-29,31,15,4,21,6,-5,82,67,55,0.00,40.00,13,6,18,0.00
2013-1-30,40,28,16,26,19,5,84,69,54,0.00,40.00,16,8,22,0.00
2013-1-31,47,35,18,30,23,13,80,62,49,0.00,40.00,13,8,22,0.00
2013-2-1,46,39,26,29,25,19,81,57,36,0.00,40.00,18,8,29,0.00
2013-2-2,50,39,26,27,22,19,74,51,34,0.00,40.00,9,6,20,0.00
2013-2-3,46,43,39,22,19,15,45,39,35,0.00,40.00,11,7,20,0.00
2013-2-4,44,43,41,25,24,22,49,47,43,0.00,40.00,18,13,31,0.00
2013-2-5,50,43,36,31,25,22,60,49,40,0.00,40.00,13,8,23,0.00
2013-2-6,45,39,35,25,20,15,60,46,36,0.00,40.00,17,10,27,0.00
2013-2-7,45,36,25,19,16,14,72,45,29,0.00,40.00,11,6,21,0.00
2013-2-8,48,30,19,23,18,14,84,64,33,0.00,40.00,8,4,11,0.00
2013-2-9,40,27,15,29,19,12,95,74,35,0.00,40.00,10,4,20,0.00
2013-2-10,33,26,14,22,16,7,78,67,49,0.00,40.00,9,5,20,0.00
2013-2-11,40,29,13,19,15,7,80,57,41,0.00,40.00,7,5,16,0.00
2013-2-12,43,37,29,25,22,17,61,54,46,0.00,40.00,27,10,35,0.00
2013-2-13,49,41,26,28,23,14,90,49,30,0.00,40.00,23,11,41,0.00
2013-2-14,40,28,19,25,21,16,90,76,47,0.00,40.00,11,3,20,0.00
2013-2-15,49,36,18,27,22,15,88,61,37,0.00,40.00,9,6,19,0.00
2013-2-16,54,45,40,31,25,23,69,46,33,0.00,40.00,17,8,30,0.00
2013-2-17,40,34,27,32,26,20,95,76,52,0.00,40.00,10,5,19,0.00
2013-2-18,37,24,13,26,19,10,94,82,56,0.00,40.00,7,3,9,0.00
2013-2-19,36,26,19,26,19,14,93,76,60,0.00,40.00,11,5,13,0.00
2013-2-20,32,23,14,22,18,11,89,80,62,0.00,40.00,9,4,11,0.00
2013-2-21,36,25,7,18,12,3,90,63,36,0.00,40.00,17,7,25,0.00
2013-2-22,42,35,24,22,17,12,64,48,37,0.00,40.00,20,10,30,0.00
2013-2-23,41,35,29,27,19,11,91,53,34,0.00,40.00,15,9,30,0.00
2013-2-24,40,31,19,24,17,11,88,58,37,0.00,40.00,16,8,24,0.00
2013-2-25,41,36,33,21,16,13,49,44,38,0.00,40.00,13,9,28,0.00
2013-2-26,39,33,26,21,16,14,63,50,39,0.00,40.00,11,7,21,0.00
2013-2-27,43,33,24,18,13,10,61,45,31,0.00,40.00,19,8,27,0.00
2013-2-28,48,39,31,28,21,14,65,48,33,0.00,40.00,11,7,19,0.00
2013-3-1,55,48,39,34,31,26,65,52,42,0.00,40.00,20,10,42,0.00
2013-3-2,60,50,40,31,28,24,61,44,27,0.00,40.00,17,9,28,0.00
2013-3-3,45,38,24,31,20,9,71,50,29,0.00,40.00,22,12,41,0.00
2013-3-4,27,21,8,20,15,4,90,76,56,0.00,40.00,9,4,17,0.00
2013-3-5,31,18,3,20,11,-1,84,72,57,0.00,40.00,12,6,19,0.00
2013-3-6,34,27,21,29,21,17,86,78,67,0.00,40.00,13,6,19,0.00
2013-3-7,46,33,22,28,20,13,91,62,29,0.00,40.00,15,6,26,0.00
2013-3-8,53,32,17,23,18,8,88,63,17,0.00,40.00,14,4,20,0.00
2013-3-9,51,34,18,23,18,14,87,59,23,0.00,40.00,8,4,14,0.00
2013-3-10,50,43,31,24,20,15,64,42,24,0.00,40.00,19,9,30,0.00
2013-3-11,40,32,24,25,22,17,88,66,52,0.00,40.00,15,8,24,0.00
2013-3-12,53,36,19,31,23,16,90,62,38,0.00,40.00,17,8,31,0.00
2013-3-13,62,54,48,36,29,26,52,39,26,0.00,40.00,19,12,32,22.80
2013-3-14,66,54,43,31,27,22,55,37,24,0.00,40.00,12,8,19,0.00
2013-3-15,59,52,35,29,26,23,64,39,27,0.00,40.00,18,12,35,0.00
2013-3-16,53,38,24,33,24,19,85,59,34,0.00,40.00,15,8,26,0.00
2013-3-17,42,31,16,26,15,6,74,52,33,0.00,40.00,17,10,30,0.00
2013-3-18,40,28,14,19,14,9,84,59,32,0.00,40.00,19,9,34,0.00
2013-3-19,47,32,16,22,13,6,85,51,19,0.00,40.00,9,5,16,0.00
2013-3-20,60,47,26,34,20,8,69,36,23,0.00,40.00,15,10,33,0.00
2013-3-21,43,38,27,24,13,6,52,36,25,0.00,40.00,22,14,35,0.00
2013-3-22,28,24,19,21,15,6,82,69,52,0.00,40.00,11,5,17,0.00
2013-3-23,35,20,4,12,4,-1,83,54,24,0.00,40.00,9,5,15,0.00
2013-3-24,43,25,9,14,5,-2,76,49,16,0.00,40.00,8,5,12,0.00
2013-3-25,50,32,13,13,8,4,68,41,16,0.00,40.00,11,6,19,0.00
2013-3-26,58,38,21,22,16,9,69,43,22,0.00,40.00,7,4,12,0.00
2013-3-27,60,40,24,26,20,15,72,50,26,0.00,40.00,7,5,15,0.00
2013-3-28,64,57,46,34,30,27,58,37,27,0.00,40.00,10,6,30,0.00
2013-3-29,62,48,38,36,29,22,80,51,25,0.00,40.00,13,6,24,0.00
2013-3-30,63,46,26,35,24,-100,86,49,23,0.00,40.00,12,5,20,0.00
2013-3-31,57,45,29,35,25,21,79,49,31,0.00,40.00,13,6,21,0.00
2013-4-1,61,43,22,27,23,18,85,50,26,0.00,40.00,14,6,20,0.00
2013-4-2,70,51,28,31,26,20,74,43,18,0.00,40.00,13,8,23,0.00
2013-4-3,60,53,40,37,32,25,66,45,33,0.00,40.00,12,8,20,0.00
2013-4-4,61,46,33,39,31,25,83,57,38,0.00,40.00,13,6,24,0.00
2013-4-5,60,54,47,39,32,25,61,45,27,0.00,40.00,18,13,34,0.00
2013-4-6,57,50,46,34,29,24,53,45,32,0.00,40.00,17,9,31,0.00
2013-4-7,51,41,28,40,28,22,94,63,43,0.00,40.00,13,6,20,0.00
2013-4-8,28,23,20,26,16,11,92,77,60,0.00,40.00,13,7,20,0.00
2013-4-9,38,28,13,23,18,10,86,66,43,0.00,40.00,12,6,16,0.00
2013-4-10,58,44,28,35,29,20,85,57,38,0.00,40.00,14,8,24,0.00
2013-4-11,55,46,37,36,27,21,81,50,29,0.00,40.00,16,7,30,0.00
2013-4-12,54,42,32,31,27,21,90,59,29,0.00,40.00,9,6,16,0.00
2013-4-13,50,44,31,35,20,9,70,40,25,0.00,40.00,21,11,38,0.00
2013-4-14,35,30,24,27,20,16,94,69,49,0.00,40.00,9,5,22,0.00
2013-4-15,30,25,19,25,19,15,88,79,71,0.00,40.00,13,6,19,0.00
2013-4-16,29,25,22,24,21,18,93,84,77,0.00,40.00,12,6,18,0.00
2013-4-17,40,28,12,25,18,9,92,68,37,0.00,40.00,9,4,14,0.00
2013-4-18,53,39,22,23,20,14,82,48,30,0.00,40.00,10,7,20,0.00
2013-4-19,53,45,34,33,28,21,63,52,44,0.00,40.00,15,8,24,0.00
2013-4-20,58,49,34,36,30,24,81,51,32,0.00,40.00,17,10,31,0.00
2013-4-21,34,28,24,30,24,21,92,84,70,0.00,40.00,15,7,22,0.00
2013-4-22,40,29,19,23,20,15,91,70,38,0.00,40.00,10,4,15,0.00
2013-4-23,51,36,22,26,19,14,77,53,26,0.00,40.00,11,7,21,0.00
2013-4-24,59,46,30,30,24,18,87,50,23,0.00,40.00,15,9,29,0.00
2013-4-25,66,56,45,27,22,16,48,28,19,0.00,40.00,15,10,30,0.00
2013-4-26,72,55,33,36,29,24,77,41,22,0.00,40.00,18,9,27,0.00
2013-4-27,71,62,55,32,27,23,41,27,16,0.00,40.00,21,14,40,0.00
2013-4-28,63,56,51,36,30,23,51,37,25,0.00,40.00,32,14,44,0.00
2013-4-29,57,50,36,34,27,15,57,41,24,0.00,40.00,23,16,54,0.00
2013-4-30,41,35,27,27,22,15,82,61,42,0.00,40.00,12,6,27,0.00
2013-5-1,53,37,20,22,16,10,79,47,21,0.00,40.00,12,6,23,0.00
2013-5-2,66,47,22,22,17,11,70,35,12,0.00,40.00,13,7,24,0.00
2013-5-3,51,45,37,43,34,20,96,67,41,0.00,40.00,11,4,20,0.00
2013-5-4,59,48,40,43,40,33,99,77,47,0.00,40.00,11,5,23,0.00
2013-5-5,67,50,31,41,36,30,97,63,33,0.00,40.00,10,4,16,0.00
2013-5-6,76,57,36,43,36,32,93,53,22,0.00,40.00,8,5,14,0.00
2013-5-7,72,58,40,40,36,32,83,49,28,0.00,40.00,12,7,26,0.00
2013-5-8,75,58,37,42,36,31,80,47,27,0.00,40.00,14,6,19,0.00
2013-5-9,81,60,41,44,39,34,80,50,20,0.00,40.00,10,5,25,0.00
2013-5-10,68,56,43,39,30,-100,78,43,25,0.00,40.00,14,8,22,0.00
2013-5-11,83,62,36,39,32,-100,69,38,17,0.00,40.00,12,7,22,0.00
2013-5-12,87,70,52,46,39,36,60,36,19,0.00,40.00,15,8,36,0.00
2013-5-13,87,72,59,48,43,37,55,36,19,0.00,40.00,16,8,49,0.00
2013-5-14,70,59,52,40,26,11,47,29,11,0.00,40.00,17,12,37,0.00
2013-5-15,74,57,37,32,27,22,61,33,16,0.00,40.00,11,5,19,0.00
2013-5-16,68,54,42,40,23,-100,68,45,32,0.00,40.00,10,5,18,0.00
2013-5-17,60,52,39,49,40,-100,93,72,53,0.00,40.00,8,4,14,0.11
2013-5-18,65,53,48,49,47,39,95,80,51,0.00,40.00,10,4,18,0.61
2013-5-19,57,52,48,48,46,43,96,82,64,0.00,40.00,7,3,22,0.23
2013-5-20,65,53,45,53,48,41,95,83,58,0.00,40.00,12,4,16,0.09
2013-5-21,75,57,37,47,38,25,98,59,21,0.00,40.00,19,6,32,0.03
2013-5-22,63,57,49,50,40,29,85,54,28,0.00,40.00,11,6,29,0.09
2013-5-23,55,48,42,50,41,37,93,79,57,0.00,40.00,11,6,20,0.65
2013-5-24,65,52,43,41,36,28,94,58,26,0.00,40.00,15,8,29,0.32
2013-5-25,67,55,42,40,34,30,75,48,30,0.00,40.00,12,5,24,0.00
2013-5-26,68,53,37,47,40,34,94,66,37,0.00,40.00,11,6,19,0.39
2013-5-27,66,52,44,51,45,40,97,79,44,0.00,40.00,12,5,19,0.44
2013-5-28,62,52,45,50,46,44,96,83,51,0.00,40.00,6,4,11,0.28
2013-5-29,65,56,48,49,47,40,95,74,52,0.00,40.00,13,6,20,0.04
2013-5-30,58,54,50,48,41,31,86,65,38,0.00,40.00,12,6,21,0.01
2013-5-31,56,50,45,49,43,33,94,78,48,0.00,40.00,10,4,19,0.15
2013-6-1,70,55,38,46,40,34,97,63,29,0.00,40.00,8,5,21,0.01
2013-6-2,63,54,48,51,45,40,95,74,46,0.00,40.00,7,4,11,0.35
2013-6-3,53,47,44,47,43,41,93,86,74,0.00,40.00,10,5,23,0.79
2013-6-4,59,49,35,42,38,34,98,69,46,0.00,40.00,9,5,15,0.05
2013-6-5,79,58,36,44,39,33,95,56,24,0.00,40.00,9,5,14,0.00
2013-6-6,78,63,46,53,47,40,88,58,40,0.00,40.00,10,6,16,0.00
2013-6-7,80,67,51,52,46,38,90,53,28,0.00,40.00,18,8,34,0.00
2013-6-8,79,66,51,51,42,34,82,47,20,0.00,40.00,13,6,21,0.00
2013-6-9,82,68,47,44,36,15,80,36,11,0.00,40.00,18,10,32,0.00
2013-6-10,75,64,42,46,38,28,69,42,23,0.00,40.00,13,8,22,0.00
2013-6-11,65,59,53,50,45,39,83,59,42,0.00,40.00,10,6,17,0.00
2013-6-12,74,59,43,60,51,42,98,78,50,0.00,40.00,12,5,26,0.43
2013-6-13,61,56,53,56,50,41,98,83,63,0.00,40.00,10,4,23,1.65
2013-6-14,63,55,44,43,37,30,86,54,32,0.00,40.00,18,10,30,0.01
2013-6-15,76,63,47,42,32,23,62,36,14,0.00,40.00,14,8,24,0.00
2013-6-16,73,60,40,49,43,35,87,55,35,0.00,40.00,12,7,20,0.00
2013-6-17,80,64,45,59,49,40,93,60,35,0.00,40.00,10,5,16,0.00
2013-6-18,81,69,54,58,52,42,88,57,35,0.00,40.00,10,6,21,0.00
2013-6-19,72,59,51,57,52,43,93,78,55,0.00,40.00,11,5,28,0.91
2013-6-20,65,54,50,43,40,38,74,60,39,0.00,40.00,9,8,19,0.97
2013-6-22,67,61,51,50,44,40,81,55,40,0.00,40.00,15,5,26,0.00
2013-6-23,78,62,40,47,42,36,96,54,23,0.00,40.00,11,5,19,0.00
2013-6-24,81,65,50,54,48,44,86,57,33,0.00,40.00,11,5,19,0.00
2013-6-25,80,66,56,52,46,41,72,51,31,0.00,40.00,16,8,30,0.00
2013-6-26,76,66,58,50,45,35,67,47,24,0.00,40.00,17,10,29,0.00
2013-6-27,86,71,55,52,46,41,77,44,22,0.00,40.00,17,8,29,0.00
2013-6-28,94,70,53,55,43,-100,79,45,21,0.00,40.00,13,7,22,0.00
2013-6-29,88,74,54,62,55,47,84,55,35,0.00,40.00,12,6,18,0.05
2013-6-30,90,76,57,61,56,52,84,53,32,0.00,40.00,10,6,17,0.05
2013-7-1,91,77,61,64,59,51,88,56,32,0.00,40.00,11,7,19,0.00
2013-7-2,100,80,61,61,56,48,82,50,19,0.00,40.00,8,6,18,0.00
2013-7-3,95,82,61,64,54,45,83,45,20,0.00,40.00,14,7,25,0.00
2013-7-4,91,79,63,65,52,37,87,47,17,0.00,40.00,13,7,23,0.00
2013-7-5,81,71,56,57,49,41,83,48,29,0.00,40.00,13,8,20,0.00
2013-7-6,78,64,55,57,50,44,83,62,31,0.00,40.00,13,8,22,0.00
2013-7-7,86,71,56,55,51,47,78,52,30,0.00,40.00,13,7,21,0.00
2013-7-8,85,68,58,61,54,40,92,65,22,0.00,40.00,14,7,30,0.10
2013-7-9,86,69,49,54,45,38,93,50,18,0.00,40.00,12,6,19,0.02
2013-7-10,98,78,53,49,40,-100,71,33,10,0.00,40.00,9,6,37,0.00
2013-7-11,89,74,56,48,43,38,64,35,18,0.00,40.00,15,8,36,0.00
2013-7-12,85,72,55,48,43,34,63,37,20,0.00,40.00,14,8,29,0.00
2013-7-13,80,68,48,48,43,40,79,44,25,0.00,40.00,15,9,25,0.00
2013-7-14,89,71,52,50,40,30,68,37,13,0.00,40.00,12,6,24,0.00
2013-7-15,96,72,50,48,37,29,60,33,10,0.00,40.00,19,6,30,0.00
2013-7-16,79,74,67,49,46,43,43,37,32,0.00,40.00,11,8,21,0.00
2013-7-17,94,74,61,57,51,45,63,46,26,0.00,40.00,9,5,15,0.01
2013-7-18,92,79,55,58,46,35,92,38,15,0.00,40.00,10,6,21,0.01
2013-7-19,95,75,55,48,38,22,67,33,8,0.00,40.00,11,7,24,0.00
2013-7-20,93,75,56,54,44,25,70,38,10,0.00,40.00,13,6,20,0.00
2013-7-21,96,73,51,47,36,28,56,29,11,0.00,40.00,11,5,19,0.00
2013-7-22,89,67,52,42,38,28,64,37,11,0.00,40.00,15,6,23,0.00
2013-7-23,92,74,51,51,42,37,64,35,16,0.00,40.00,12,7,20,0.00
2013-7-24,98,76,56,52,45,35,62,38,11,0.00,40.00,10,6,29,0.00
2013-7-25,88,74,56,55,51,48,77,49,28,0.00,40.00,13,8,21,0.00
2013-7-26,92,72,54,56,48,31,86,49,12,0.00,40.00,9,5,16,0.00
2013-7-27,89,68,52,55,41,23,67,42,9,0.00,40.00,10,6,16,0.00
2013-7-28,81,70,59,55,51,45,83,54,30,0.00,40.00,13,8,23,0.00
2013-7-29,72,63,55,50,47,43,74,57,42,0.00,40.00,18,8,27,0.00
2013-7-30,77,66,54,51,48,45,77,53,35,0.00,40.00,13,8,19,0.00
2013-7-31,91,72,50,51,43,35,78,41,16,0.00,40.00,14,7,21,0.00
2013-8-1,75,65,57,57,49,39,93,61,27,0.00,40.00,12,6,21,0.25
2013-8-2,76,64,56,58,50,41,95,66,31,0.00,40.00,16,7,26,0.43
2013-8-3,72,61,49,58,50,46,93,68,42,0.00,40.00,14,7,21,0.13
2013-8-4,87,69,49,51,46,39,89,51,24,0.00,40.00,9,6,16,0.13
2013-8-5,87,69,51,51,44,35,76,47,16,0.00,40.00,15,8,28,0.00
2013-8-6,84,68,50,53,45,36,91,53,21,0.00,40.00,11,5,17,0.00
2013-8-7,87,70,53,50,46,41,80,44,24,0.00,40.00,16,7,29,0.00
2013-8-8,81,68,51,54,50,45,83,55,34,0.00,40.00,15,9,28,0.00
2013-8-9,79,68,58,55,52,48,79,58,41,0.00,40.00,14,7,20,0.00
2013-8-10,88,75,60,53,47,42,68,40,22,0.00,40.00,13,6,20,0.00
2013-8-11,82,71,56,52,48,44,74,47,28,0.00,40.00,12,6,19,0.00
2013-8-12,91,70,51,47,44,39,78,43,18,0.00,40.00,10,5,22,0.00
2013-8-13,88,72,54,50,45,40,67,42,21,0.00,40.00,10,6,19,0.00
2013-8-14,92,74,55,50,43,-100,75,41,13,0.00,40.00,11,5,17,0.00
2013-8-15,97,61,54,48,28,-100,67,42,7,0.00,40.00,13,6,22,0.00
2013-8-16,96,66,52,42,32,-100,45,31,12,0.00,40.00,9,5,19,0.00
2013-8-17,94,74,56,46,38,-100,49,30,16,0.00,40.00,11,5,20,0.00
2013-8-18,90,78,59,49,42,35,53,31,15,0.00,40.00,16,9,30,0.00
2013-8-19,92,76,65,43,30,-100,35,23,13,0.00,40.00,18,11,31,0.00
2013-8-20,89,76,62,45,36,-100,35,25,15,0.00,40.00,17,9,28,0.00
2013-8-21,83,67,47,39,36,32,64,35,17,0.00,40.00,14,7,22,0.00
2013-8-22,91,68,48,46,39,33,64,36,18,0.00,40.00,9,5,15,0.00
2013-8-23,89,78,70,50,45,38,47,33,18,0.00,40.00,10,7,28,0.00
2013-8-24,90,73,57,50,42,-100,65,37,13,0.00,40.00,14,5,25,0.00
2013-8-25,92,74,58,56,47,40,84,43,17,0.00,40.00,12,7,21,0.01
2013-8-26,91,69,55,56,50,38,90,60,18,0.00,40.00,9,5,24,0.01
2013-8-27,90,63,51,53,49,46,84,65,22,0.00,40.00,10,4,18,0.01
2013-8-28,91,80,67,61,49,43,58,35,24,0.00,40.00,11,7,25,0.00
2013-8-29,96,74,57,56,49,42,80,48,17,0.00,40.00,8,5,36,0.02
2013-8-30,89,73,54,54,45,33,81,45,16,0.00,40.00,16,7,32,0.02
2013-8-31,84,67,50,43,35,-100,71,36,17,0.00,40.00,14,6,21,0.00
2013-9-1,97,69,48,41,36,31,58,34,11,0.00,40.00,9,6,16,0.00
2013-9-2,93,74,55,40,36,31,45,27,14,0.00,40.00,9,5,26,0.00
2013-9-3,93,73,54,46,41,35,54,34,19,0.00,40.00,10,5,16,0.00
2013-9-4,93,78,64,59,51,44,59,41,24,0.00,40.00,7,4,16,0.00
2013-9-5,92,70,57,62,52,47,86,54,26,0.00,40.00,8,4,24,0.10
2013-9-6,84,69,59,63,59,53,93,74,35,0.00,40.00,13,6,20,0.64
2013-9-7,71,64,61,64,58,-100,96,83,66,0.00,40.00,10,5,17,0.17
2013-9-8,74,65,55,61,53,42,94,68,35,0.00,40.00,13,5,24,0.01
2013-9-9,74,62,52,56,49,44,87,63,42,0.00,40.00,6,4,14,0.03
2013-9-10,85,67,49,52,47,41,91,56,22,0.00,40.00,8,5,14,0.03
2013-9-11,81,66,47,51,46,41,88,52,27,0.00,40.00,12,7,22,0.00
2013-9-12,84,66,48,48,45,41,80,50,28,0.00,40.00,8,5,14,0.00
2013-9-13,88,71,52,52,46,39,77,45,21,0.00,40.00,8,6,17,0.00
2013-9-14,77,66,56,52,46,-100,76,51,37,0.00,40.00,10,6,21,0.00
2013-9-15,85,67,46,51,45,39,82,49,28,0.00,40.00,9,4,14,0.00
2013-9-16,88,74,62,52,49,42,63,43,24,0.00,40.00,12,7,26,0.00
2013-9-17,67,59,47,52,47,42,83,65,48,0.00,40.00,8,5,20,0.01
2013-9-18,61,54,45,49,45,37,80,71,57,0.00,40.00,10,7,17,0.01
2013-9-19,71,53,38,47,37,27,95,61,25,0.00,40.00,8,5,17,0.01
2013-9-20,80,61,44,38,32,27,68,39,16,0.00,40.00,10,7,21,0.00
2013-9-21,86,65,43,35,28,-100,58,29,13,0.00,40.00,9,5,18,0.00
2013-9-22,70,60,53,47,38,28,68,46,30,0.00,40.00,12,5,19,0.02
2013-9-23,62,57,51,39,33,28,60,42,30,0.00,40.00,20,13,37,0.01
2013-9-24,58,53,47,44,37,31,84,57,37,0.00,40.00,10,5,17,0.07
2013-9-25,50,46,42,43,41,37,94,84,70,0.00,40.00,15,6,34,0.09
2013-9-26,46,40,35,41,37,34,96,86,77,0.00,40.00,15,5,37,0.05
2013-9-27,57,44,30,37,32,28,97,68,35,0.00,40.00,16,9,28,0.00
2013-9-28,63,55,48,39,35,-100,59,48,38,0.00,40.00,16,9,29,0.00
2013-9-29,63,56,51,38,34,30,62,44,37,0.00,40.00,15,10,44,0.00
2013-9-30,58,53,49,44,32,26,79,45,32,0.00,40.00,20,12,39,0.00
2013-10-1,56,49,43,28,26,24,52,41,33,0.00,40.00,9,6,22,0.00
2013-10-2,59,48,38,31,26,21,65,43,24,0.00,40.00,16,7,25,0.00
2013-10-3,47,38,34,34,31,23,91,79,39,0.00,40.00,16,6,28,0.00
2013-10-4,54,42,34,35,31,25,96,68,37,0.00,40.00,8,4,14,0.00
2013-10-5,63,50,39,29,26,22,58,39,25,0.00,40.00,9,6,22,0.00
2013-10-6,70,60,50,34,29,24,43,32,23,0.00,40.00,12,8,22,0.00
2013-10-7,72,60,49,36,30,24,52,33,20,0.00,40.00,15,10,30,0.00
2013-10-8,56,49,34,30,27,23,74,43,31,0.00,40.00,19,9,30,0.00
2013-10-9,52,39,29,37,32,26,91,77,54,0.00,40.00,7,4,11,0.00
2013-10-10,60,46,33,41,31,26,91,60,30,0.00,40.00,12,6,18,0.00
2013-10-11,58,45,34,35,30,23,82,57,28,0.00,40.00,8,4,12,0.00
2013-10-12,50,38,25,32,27,-100,89,69,44,0.00,40.00,11,5,15,0.00
2013-10-13,49,43,36,35,32,29,81,65,49,0.00,40.00,9,5,15,0.00
2013-10-14,48,41,30,36,33,28,94,76,53,0.00,40.00,7,4,11,0.00
2013-10-15,56,41,26,34,27,22,94,64,32,0.00,40.00,9,6,20,0.00
2013-10-16,45,37,28,36,30,20,94,76,39,0.00,40.00,5,3,15,0.00
2013-10-17,47,38,31,38,33,28,97,82,53,0.00,40.00,7,4,16,0.00
2013-10-18,59,43,29,34,29,25,92,64,33,0.00,40.00,9,6,16,0.00
2013-10-19,61,49,32,34,29,-100,80,50,30,0.00,40.00,14,6,24,0.00
2013-10-20,62,48,39,40,35,29,95,65,33,0.00,40.00,14,4,24,0.00
2013-10-21,65,48,34,39,34,28,87,63,32,0.00,40.00,10,5,12,0.00
2013-10-22,71,48,32,41,34,30,94,64,26,0.00,40.00,8,3,14,0.00
2013-10-23,61,43,28,37,32,26,91,69,41,0.00,40.00,11,5,16,0.00
2013-10-24,66,45,28,40,32,27,94,65,29,0.00,40.00,9,5,14,0.00
2013-10-25,68,50,37,37,31,27,78,51,26,0.00,40.00,10,6,14,0.00
2013-10-26,68,48,30,32,24,-100,89,49,14,0.00,40.00,10,6,19,0.00
2013-10-27,57,46,28,29,25,20,93,48,30,0.00,40.00,13,7,24,0.00
2013-10-28,28,21,19,20,16,-100,88,81,73,0.00,40.00,10,4,22,0.00
2013-10-29,38,23,16,24,17,11,90,79,53,0.00,40.00,7,4,10,0.00
2013-10-30,51,40,31,26,24,20,63,52,36,0.00,40.00,6,4,11,0.00
2013-10-31,51,44,36,31,26,23,67,51,43,0.00,40.00,14,7,30,0.00
2013-11-1,53,39,24,35,26,22,91,63,36,0.00,40.00,16,6,28,0.00
2013-11-2,59,45,34,30,27,-100,78,52,30,0.00,40.00,12,7,30,0.00
2013-11-3,45,36,28,28,20,15,90,55,38,0.00,40.00,15,9,28,0.00
2013-11-4,35,27,21,26,22,17,88,80,66,0.00,40.00,9,5,15,0.00
2013-11-5,40,32,20,25,16,12,85,55,31,0.00,40.00,15,8,25,0.00
2013-11-6,46,40,32,27,23,17,66,50,33,0.00,40.00,14,8,24,0.00
2013-11-7,55,43,31,42,29,19,82,59,41,0.00,40.00,17,7,28,0.00
2013-11-8,48,44,41,28,25,20,54,48,43,0.00,40.00,19,13,32,0.00
2013-11-9,48,42,34,24,20,-100,52,43,32,0.00,40.00,13,6,20,0.00
2013-11-10,43,33,26,26,23,19,87,68,46,0.00,40.00,16,8,20,0.00
2013-11-11,41,31,25,30,24,21,91,78,56,0.00,40.00,8,5,11,0.00
2013-11-12,58,48,33,35,30,25,88,52,32,0.00,40.00,13,9,24,0.00
2013-11-13,55,51,43,36,28,24,52,42,32,0.00,40.00,18,12,34,0.00
2013-11-14,48,43,38,27,24,21,60,47,35,0.00,40.00,14,8,26,0.00
2013-11-15,45,41,38,22,20,18,48,44,36,0.00,40.00,20,12,31,0.00
2013-11-16,45,35,23,26,20,-100,78,58,43,0.00,40.00,12,7,25,0.00
2013-11-17,42,30,16,23,17,12,86,61,38,0.00,40.00,15,6,24,0.00
2013-11-18,54,46,41,20,17,14,39,32,22,0.00,40.00,16,10,27,0.00
2013-11-19,56,47,13,29,22,4,71,39,29,0.00,40.00,15,11,39,0.00
2013-11-20,13,8,0,5,-1,-8,75,65,51,0.00,40.00,10,6,16,0.00
2013-11-21,30,14,0,7,1,-6,75,57,32,0.00,40.00,10,7,16,0.00
2013-11-22,39,28,20,9,6,1,52,39,27,0.00,40.00,9,6,13,0.00
2013-11-23,45,34,23,14,10,-100,51,39,25,0.00,40.00,12,10,19,0.00
2013-11-24,53,40,31,21,15,12,63,37,21,0.00,40.00,12,8,16,0.00
2013-11-25,51,33,18,25,20,15,88,62,33,0.00,40.00,8,4,10,0.00
2013-11-26,51,40,26,25,22,19,74,52,31,0.00,40.00,12,8,18,0.00
2013-11-27,50,40,23,29,20,16,76,48,30,0.00,40.00,11,6,17,0.00
2013-11-28,52,36,18,27,19,14,85,55,27,0.00,40.00,9,6,15,0.00
2013-11-29,54,47,39,26,21,18,46,36,26,0.00,40.00,15,9,24,0.00
2013-11-30,49,45,41,31,27,-100,58,51,43,0.00,40.00,15,9,27,0.00
2013-12-1,48,46,42,35,30,28,73,54,49,0.00,40.00,14,9,24,0.00
2013-12-2,42,28,9,37,20,1,86,75,58,0.00,40.00,9,6,21,0.00
2013-12-3,9,5,-4,1,-3,-11,75,69,63,0.00,40.00,7,4,17,0.00
2013-12-4,6,-2,-16,-2,-10,-25,76,68,51,0.00,40.00,6,4,17,0.00
2013-12-5,9,-7,-23,-6,-16,-32,73,63,49,0.00,40.00,11,4,15,0.00
2013-12-6,-7,-15,-25,-18,-26,-35,67,58,48,0.00,40.00,9,4,16,0.00
2013-12-7,-7,-15,-31,-18,-27,-100,69,56,48,0.00,40.00,9,6,13,0.00
2013-12-8,7,2,-8,0,-9,-20,74,60,47,0.00,40.00,7,5,13,0.00
2013-12-9,27,17,5,11,0,-10,51,48,42,0.00,40.00,11,7,21,0.00
2013-12-10,29,21,5,18,11,0,85,67,47,0.00,40.00,11,8,22,0.00
2013-12-11,36,28,6,18,13,1,81,54,44,0.00,40.00,14,9,27,0.00
2013-12-12,41,37,31,21,18,15,54,46,39,0.00,40.00,17,11,30,0.00
2013-12-13,42,38,30,24,22,19,68,52,44,0.00,40.00,15,8,24,0.00
2013-12-14,46,40,30,29,24,-100,68,54,43,0.00,40.00,13,9,34,0.00
2013-12-15,52,48,45,27,23,19,45,38,33,0.00,40.00,24,14,38,0.00
2013-12-16,49,46,42,27,24,21,47,42,33,0.00,40.00,19,11,34,0.00
2013-12-17,59,50,42,23,18,15,46,29,19,0.00,40.00,20,11,29,0.00
2013-12-18,52,40,9,24,18,3,84,47,23,0.00,40.00,22,13,38,0.00
2013-12-19,18,9,-1,3,-1,-8,77,62,47,0.00,40.00,10,6,17,0.00
2013-12-20,30,25,18,19,9,3,68,51,42,0.00,40.00,11,8,23,0.00
2013-12-21,35,25,16,22,16,-100,82,71,56,0.00,40.00,15,7,21,0.00
2013-12-22,23,14,9,10,7,4,79,72,52,0.00,40.00,10,6,14,0.00
2013-12-23,47,38,9,33,26,4,79,64,54,0.00,40.00,14,9,32,0.00
2013-12-24,40,36,28,27,19,16,62,51,38,0.00,40.00,16,8,26,0.00
2013-12-25,44,37,24,16,10,-1,66,36,15,0.00,40.00,16,7,30,0.00
2013-12-26,53,48,42,28,23,12,44,38,28,0.00,40.00,14,10,25,0.00
2013-12-27,58,52,45,27,21,17,37,30,22,0.00,40.00,16,9,31,0.00
2013-12-28,50,22,12,21,9,-100,71,58,27,0.00,40.00,15,8,31,0.00
2013-12-29,38,30,13,22,16,7,79,55,42,0.00,40.00,11,7,24,0.00
2013-12-30,46,37,20,31,23,16,87,58,40,0.00,40.00,13,7,25,0.00
2013-12-31,46,41,28,31,27,22,79,59,51,0.00,40.00,14,8,24,0.00
2014-1-1,42,33,21,27,21,18,89,63,37,0.00,40.00,13,6,24,0.00
2014-1-2,49,44,36,27,20,15,50,38,32,0.00,40.00,16,9,39,0.00